Hourly Data Report for July 08, 2011

HALIFAX STANFIELD INT'L A
NOVA SCOTIA

44°52'48.060" N
63°30'00.050" W
145.40 m
8202250
71395
YHZ

Download Data

Hourly Data (July 2011)
Hourly Data Report for July 8, 2011
TIME
LST
Temp Definition
°C
Dew Point Definition
°C
Rel Hum Definition
%
Precip. Amount Definition
mm

Wind Dir Definition
10's deg

Wind Spd Definition
km/h
Visibility Definition
km
Stn Press Definition
kPa
Hmdx Definition


Wind Chill Definition


Weather Definition


00:00 18.1 13.4 74   32 13 24.1 99.50     Mainly Clear
01:00 15.9 13.1 83   32 7 24.1 99.51     Mostly Cloudy
02:00 14.9 13.0 88     0 24.1 99.52     Mostly Cloudy
03:00 14.8 13.0 89   34 6 24.1 99.57     Mainly Clear
04:00 15.4 13.0 86   35 4 24.1 99.62     Mainly Clear
05:00 15.4 13.1 86   35 7 24.1 99.66     Mostly Cloudy
06:00 16.7 13.7 82     0 24.1 99.75     Mostly Cloudy
07:00 18.5 14.4 77     0 24.1 99.78     Mostly Cloudy
08:00 20.5 14.4 68     0 24.1 99.81     Mostly Cloudy
09:00 22.5 15.0 63     0 24.1 99.80 26   Mostly Cloudy
10:00 24.5 13.7 51   26 17 24.1 99.75 28   Mostly Cloudy
11:00 24.7 13.5 50   21 19 24.1 99.75 28   Mostly Cloudy
12:00 25.9 13.8 47   19 13 24.1 99.72 29   Cloudy
13:00 25.1 13.4 48   15 13 24.1 99.68 28   Mostly Cloudy
14:00 25.2 13.8 49   20 17 24.1 99.66 28   Mostly Cloudy
15:00 23.3 15.0 60   17 17 24.1 99.69 27   Cloudy
16:00 22.2 11.8 52   20 19 24.1 99.72     Mostly Cloudy
17:00 21.0 12.0 56   18 13 24.1 99.73     Mostly Cloudy
18:00 20.0 12.2 61   21 7 24.1 99.72     Mostly Cloudy
19:00 19.1 12.9 67   18 7 24.1 99.71     Mostly Cloudy
20:00 17.3 12.3 72   13 4 24.1 99.71     Mostly Cloudy
21:00 16.6 13.3 81   14 9 24.1 99.74     Mostly Cloudy
22:00 15.3 13.2 87   15 9 24.1 99.74     Mostly Cloudy
23:00 14.0 12.7 92   16 13 24.1 99.71     Mostly Cloudy

Notes on Data Quality.

Legend

  • E = Estimated
  • M = Missing
  • NA = Not Available*
  • [empty] = Indicates an unobserved value
Date modified: